Time,TemperatureF,DewpointF,PressureIn,WindDirection,WindDirectionDegrees,WindSpeedMPH,WindSpeedGustMPH,Humidity,HourlyPrecipIn,Conditions,Clouds,dailyrainin,SoftwareType,DateUTC
2013-06-29 00:01:00,69.6,67.3,29.53,SE,127,0.0,3.0,92,0.00,,,0.43,meteohub,2013-06-29 04:01:00,
2013-06-29 00:06:00,69.6,67.3,29.53,SE,142,2.0,4.0,92,0.00,,,0.00,meteohub,2013-06-29 04:06:00,
2013-06-29 00:11:00,69.4,67.1,29.52,WSW,257,0.0,4.0,92,0.00,,,0.00,meteohub,2013-06-29 04:11:00,
2013-06-29 00:16:00,69.4,67.1,29.52,East,82,0.0,4.0,92,0.00,,,0.00,meteohub,2013-06-29 04:16:00,
2013-06-29 00:21:00,69.4,67.1,29.52,NNW,338,0.0,3.0,92,0.00,,,0.00,meteohub,2013-06-29 04:21:00,
2013-06-29 00:26:00,69.4,67.1,29.52,South,188,0.0,3.0,92,0.00,,,0.00,meteohub,2013-06-29 04:26:00,
2013-06-29 00:31:00,69.4,67.1,29.52,SE,138,1.0,3.0,92,0.00,,,0.00,meteohub,2013-06-29 04:31:00,
2013-06-29 00:36:00,69.4,67.1,29.52,NNE,26,0.0,5.0,92,0.00,,,0.00,meteohub,2013-06-29 04:36:00,
2013-06-29 00:41:00,69.4,67.3,29.51,East,98,0.0,5.0,93,0.00,,,0.00,meteohub,2013-06-29 04:41:00,
2013-06-29 00:46:00,69.4,67.3,29.51,NE,48,1.0,5.0,93,0.00,,,0.00,meteohub,2013-06-29 04:46:00,
2013-06-29 00:51:00,69.3,67.1,29.51,East,94,1.0,4.0,93,0.00,,,0.00,meteohub,2013-06-29 04:51:00,
2013-06-29 00:56:00,69.4,67.3,29.51,ENE,67,0.0,4.0,93,0.00,,,0.00,meteohub,2013-06-29 04:56:00,
2013-06-29 01:01:00,69.4,67.3,29.50,NE,54,0.0,4.0,93,0.00,,,0.00,meteohub,2013-06-29 05:01:00,
2013-06-29 01:06:00,69.3,67.1,29.51,SE,124,0.0,3.0,93,0.00,,,0.00,meteohub,2013-06-29 05:06:00,
2013-06-29 01:11:00,69.3,67.5,29.51,ESE,123,0.0,3.0,94,0.00,,,0.00,meteohub,2013-06-29 05:11:00,
2013-06-29 01:16:00,69.4,67.6,29.51,SSW,205,0.0,3.0,94,0.00,,,0.00,meteohub,2013-06-29 05:16:00,
2013-06-29 01:21:00,69.4,67.6,29.51,SSW,209,0.0,3.0,94,0.00,,,0.00,meteohub,2013-06-29 05:21:00,
2013-06-29 01:26:00,69.4,67.6,29.50,ESE,123,0.0,3.0,94,0.00,,,0.00,meteohub,2013-06-29 05:26:00,
2013-06-29 01:31:00,69.4,67.6,29.50,ESE,112,0.0,3.0,94,0.00,,,0.00,meteohub,2013-06-29 05:31:00,
2013-06-29 01:36:00,69.4,67.6,29.50,SE,138,0.0,3.0,94,0.00,,,0.00,meteohub,2013-06-29 05:36:00,
2013-06-29 01:41:00,69.4,67.6,29.50,SSE,159,0.0,3.0,94,0.00,,,0.00,meteohub,2013-06-29 05:41:00,
2013-06-29 01:46:00,69.3,67.5,29.50,SSE,159,0.0,3.0,94,0.00,,,0.00,meteohub,2013-06-29 05:46:00,
2013-06-29 01:51:00,69.3,67.5,29.50,SSE,159,0.0,1.0,94,0.00,,,0.00,meteohub,2013-06-29 05:51:00,
2013-06-29 01:56:00,69.3,67.8,29.49,SSE,159,0.0,0.0,95,0.00,,,0.00,meteohub,2013-06-29 05:56:00,
2013-06-29 02:01:00,69.3,67.8,29.49,SSE,159,0.0,0.0,95,0.00,,,0.00,meteohub,2013-06-29 06:01:00,
2013-06-29 02:06:00,69.3,67.8,29.49,ENE,78,0.0,1.0,95,0.00,,,0.00,meteohub,2013-06-29 06:06:00,
2013-06-29 02:11:00,69.3,67.8,29.49,South,182,0.0,2.0,95,0.00,,,0.00,meteohub,2013-06-29 06:11:00,
2013-06-29 02:16:00,69.3,67.8,29.49,South,190,0.0,2.0,95,0.00,,,0.00,meteohub,2013-06-29 06:16:00,
2013-06-29 02:21:00,69.3,67.8,29.49,ESE,123,1.0,2.0,95,0.00,,,0.00,meteohub,2013-06-29 06:21:00,
2013-06-29 02:26:00,69.3,67.8,29.49,WSW,258,0.0,2.0,95,0.00,,,0.00,meteohub,2013-06-29 06:26:00,
2013-06-29 02:31:00,69.4,68.0,29.49,ESE,123,0.0,2.0,95,0.00,,,0.00,meteohub,2013-06-29 06:31:00,
2013-06-29 02:36:00,69.3,68.0,29.49,ESE,123,1.0,2.0,96,0.00,,,0.00,meteohub,2013-06-29 06:36:00,
2013-06-29 02:41:00,69.4,68.2,29.49,ESE,123,0.0,2.0,96,0.00,,,0.00,meteohub,2013-06-29 06:41:00,
2013-06-29 02:46:00,69.4,68.2,29.49,ESE,123,0.0,1.0,96,0.00,,,0.00,meteohub,2013-06-29 06:46:00,
2013-06-29 02:51:00,69.4,68.2,29.49,ESE,123,0.0,1.0,96,0.00,,,0.00,meteohub,2013-06-29 06:51:00,
2013-06-29 02:57:00,69.4,68.2,29.49,ESE,120,0.0,1.0,96,0.00,,,0.00,meteohub,2013-06-29 06:57:00,
2013-06-29 03:02:00,69.4,68.2,29.50,SSE,156,0.0,1.0,96,0.00,,,0.00,meteohub,2013-06-29 07:02:00,
2013-06-29 03:07:00,69.4,68.2,29.50,SSE,159,1.0,1.0,96,0.00,,,0.00,meteohub,2013-06-29 07:07:00,
2013-06-29 03:12:00,69.4,68.2,29.49,East,92,1.0,3.0,96,0.00,,,0.00,meteohub,2013-06-29 07:12:00,
2013-06-29 03:16:00,69.4,68.2,29.49,SE,133,0.0,3.0,96,0.00,,,0.00,meteohub,2013-06-29 07:16:00,
2013-06-29 03:21:00,69.4,68.2,29.49,SE,135,0.0,3.0,96,0.00,,,0.00,meteohub,2013-06-29 07:21:00,
2013-06-29 03:26:00,69.4,68.2,29.49,SSW,194,0.0,2.0,96,0.00,,,0.00,meteohub,2013-06-29 07:26:00,
2013-06-29 03:31:00,69.4,68.2,29.49,SE,130,0.0,3.0,96,0.00,,,0.00,meteohub,2013-06-29 07:31:00,
2013-06-29 03:36:00,69.4,68.2,29.49,ESE,110,0.0,3.0,96,0.00,,,0.00,meteohub,2013-06-29 07:36:00,
2013-06-29 03:41:00,69.4,68.2,29.50,East,97,0.0,3.0,96,0.00,,,0.00,meteohub,2013-06-29 07:41:00,
2013-06-29 03:46:00,69.4,68.2,29.49,East,99,0.0,3.0,96,0.00,,,0.00,meteohub,2013-06-29 07:46:00,
2013-06-29 03:51:00,69.4,68.2,29.49,East,99,0.0,3.0,96,0.00,,,0.00,meteohub,2013-06-29 07:51:00,
2013-06-29 03:56:00,69.4,68.2,29.49,SSW,194,2.0,3.0,96,0.00,,,0.00,meteohub,2013-06-29 07:56:00,
2013-06-29 04:01:00,69.4,68.2,29.49,South,186,1.0,2.0,96,0.00,,,0.00,meteohub,2013-06-29 08:01:00,
2013-06-29 04:06:00,69.4,68.2,29.49,NE,41,0.0,3.0,96,0.00,,,0.00,meteohub,2013-06-29 08:06:00,
2013-06-29 04:11:00,69.4,68.2,29.50,East,86,0.0,3.0,96,0.00,,,0.00,meteohub,2013-06-29 08:11:00,
2013-06-29 04:16:00,69.4,68.2,29.49,ESE,112,0.0,2.0,96,0.00,,,0.00,meteohub,2013-06-29 08:16:00,
2013-06-29 04:21:00,69.4,68.2,29.49,SSW,199,0.0,1.0,96,0.00,,,0.00,meteohub,2013-06-29 08:21:00,
2013-06-29 04:26:00,69.3,68.0,29.49,SE,126,0.0,2.0,96,0.00,,,0.00,meteohub,2013-06-29 08:26:00,
2013-06-29 04:31:00,69.3,68.0,29.49,SE,142,0.0,2.0,96,0.00,,,0.00,meteohub,2013-06-29 08:31:00,
2013-06-29 04:36:00,69.3,68.0,29.49,South,178,0.0,2.0,96,0.00,,,0.00,meteohub,2013-06-29 08:36:00,
2013-06-29 04:41:00,69.3,68.0,29.50,South,178,0.0,2.0,96,0.00,,,0.00,meteohub,2013-06-29 08:41:00,
2013-06-29 04:46:00,69.3,68.0,29.50,South,178,0.0,2.0,96,0.00,,,0.00,meteohub,2013-06-29 08:46:00,
2013-06-29 04:52:00,69.3,68.0,29.51,South,178,0.0,1.0,96,0.00,,,0.00,meteohub,2013-06-29 08:52:00,
2013-06-29 04:57:00,69.3,68.0,29.51,West,261,0.0,1.0,96,0.00,,,0.00,meteohub,2013-06-29 08:57:00,
2013-06-29 05:02:00,69.3,68.0,29.51,West,264,0.0,1.0,96,0.00,,,0.00,meteohub,2013-06-29 09:02:00,
2013-06-29 05:07:00,69.3,68.0,29.51,West,264,0.0,1.0,96,0.00,,,0.00,meteohub,2013-06-29 09:07:00,
2013-06-29 05:12:00,69.3,68.0,29.51,ESE,111,0.0,1.0,96,0.00,,,0.00,meteohub,2013-06-29 09:12:00,
2013-06-29 05:17:00,69.3,68.0,29.51,ESE,111,0.0,1.0,96,0.00,,,0.00,meteohub,2013-06-29 09:17:00,
2013-06-29 05:22:00,69.3,68.0,29.52,ESE,111,0.0,1.0,96,0.00,,,0.00,meteohub,2013-06-29 09:22:00,
2013-06-29 05:27:00,69.4,68.2,29.52,ESE,111,0.0,1.0,96,0.00,,,0.00,meteohub,2013-06-29 09:27:00,
2013-06-29 05:32:00,69.3,68.0,29.52,ESE,111,0.0,1.0,96,0.00,,,0.00,meteohub,2013-06-29 09:32:00,
2013-06-29 05:37:00,69.3,68.0,29.53,ESE,103,0.0,1.0,96,0.00,,,0.00,meteohub,2013-06-29 09:37:00,
2013-06-29 05:42:00,69.3,68.0,29.53,ESE,103,0.0,1.0,96,0.00,,,0.00,meteohub,2013-06-29 09:42:00,
2013-06-29 05:47:00,69.3,67.8,29.53,ESE,103,0.0,1.0,95,0.00,,,0.00,meteohub,2013-06-29 09:47:00,
2013-06-29 05:52:00,69.3,67.8,29.53,SE,133,0.0,1.0,95,0.00,,,0.00,meteohub,2013-06-29 09:52:00,
2013-06-29 05:57:00,69.3,67.8,29.53,NE,36,0.0,3.0,95,0.00,,,0.00,meteohub,2013-06-29 09:57:00,
2013-06-29 06:02:00,69.3,67.8,29.53,NE,35,0.0,3.0,95,0.00,,,0.00,meteohub,2013-06-29 10:02:00,
2013-06-29 06:07:00,69.4,68.0,29.53,East,95,0.0,3.0,95,0.00,,,0.00,meteohub,2013-06-29 10:07:00,
2013-06-29 06:12:00,69.4,68.0,29.53,North,0,0.0,3.0,95,0.00,,,0.00,meteohub,2013-06-29 10:12:00,
2013-06-29 06:17:00,69.4,67.6,29.53,SW,226,3.0,3.0,94,0.00,,,0.00,meteohub,2013-06-29 10:17:00,
2013-06-29 06:22:00,69.4,68.0,29.54,SW,224,0.0,3.0,95,0.00,,,0.00,meteohub,2013-06-29 10:22:00,
2013-06-29 06:27:00,69.4,68.0,29.54,SSW,192,0.0,3.0,95,0.00,,,0.00,meteohub,2013-06-29 10:27:00,
2013-06-29 06:32:00,69.4,68.0,29.54,SSW,192,0.0,3.0,95,0.00,,,0.00,meteohub,2013-06-29 10:32:00,
2013-06-29 06:37:00,69.6,67.8,29.54,ENE,71,1.0,1.0,94,0.00,,,0.00,meteohub,2013-06-29 10:37:00,
2013-06-29 06:42:00,69.6,67.8,29.53,East,98,1.0,2.0,94,0.00,,,0.00,meteohub,2013-06-29 10:42:00,
2013-06-29 06:47:00,69.6,67.8,29.53,East,98,0.0,2.0,94,0.00,,,0.00,meteohub,2013-06-29 10:47:00,
2013-06-29 06:52:00,69.6,67.8,29.53,East,98,0.0,2.0,94,0.00,,,0.00,meteohub,2013-06-29 10:52:00,
2013-06-29 06:57:00,69.8,68.0,29.53,East,98,0.0,2.0,94,0.00,,,0.00,meteohub,2013-06-29 10:57:00,
2013-06-29 07:02:00,69.8,68.0,29.53,SE,146,1.0,1.0,94,0.00,,,0.00,meteohub,2013-06-29 11:02:00,
2013-06-29 07:07:00,70.0,68.2,29.53,SE,144,0.0,2.0,94,0.00,,,0.00,meteohub,2013-06-29 11:07:00,
2013-06-29 07:12:00,70.0,68.2,29.53,SE,144,0.0,2.0,94,0.00,,,0.00,meteohub,2013-06-29 11:12:00,
2013-06-29 07:17:00,70.2,68.4,29.53,East,96,0.0,3.0,94,0.00,,,0.00,meteohub,2013-06-29 11:17:00,
2013-06-29 07:22:00,70.3,68.2,29.53,East,98,0.0,3.0,93,0.00,,,0.00,meteohub,2013-06-29 11:22:00,
2013-06-29 07:27:00,70.5,68.4,29.53,East,98,0.0,3.0,93,0.00,,,0.00,meteohub,2013-06-29 11:27:00,
2013-06-29 07:32:00,70.7,68.2,29.53,East,98,0.0,3.0,92,0.00,,,0.00,meteohub,2013-06-29 11:32:00,
2013-06-29 07:37:00,70.9,68.4,29.53,East,98,0.0,3.0,92,0.00,,,0.00,meteohub,2013-06-29 11:37:00,
2013-06-29 07:42:00,70.9,68.2,29.53,NW,304,0.0,2.0,91,0.00,,,0.00,meteohub,2013-06-29 11:42:00,
2013-06-29 07:47:00,71.1,68.4,29.53,NW,304,0.0,2.0,91,0.00,,,0.00,meteohub,2013-06-29 11:47:00,
2013-06-29 07:52:00,71.1,68.4,29.54,NW,304,0.0,2.0,91,0.00,,,0.00,meteohub,2013-06-29 11:52:00,
2013-06-29 07:57:00,71.2,68.2,29.54,NW,304,0.0,1.0,90,0.00,,,0.00,meteohub,2013-06-29 11:57:00,
2013-06-29 08:02:00,71.4,68.7,29.54,NW,304,0.0,1.0,91,0.00,,,0.00,meteohub,2013-06-29 12:02:00,
2013-06-29 08:07:00,71.8,68.7,29.54,NW,304,0.0,2.0,90,0.00,,,0.00,meteohub,2013-06-29 12:07:00,
2013-06-29 08:12:00,72.0,68.5,29.54,NW,313,0.0,2.0,89,0.00,,,0.00,meteohub,2013-06-29 12:12:00,
2013-06-29 08:17:00,72.1,69.1,29.55,NW,313,0.0,2.0,90,0.00,,,0.00,meteohub,2013-06-29 12:17:00,
2013-06-29 08:22:00,72.3,68.5,29.55,East,92,1.0,2.0,88,0.00,,,0.00,meteohub,2013-06-29 12:22:00,
2013-06-29 08:27:00,72.7,68.2,29.55,ESE,115,1.0,2.0,86,0.00,,,0.00,meteohub,2013-06-29 12:27:00,
2013-06-29 08:32:00,72.5,68.0,29.55,SE,143,0.0,2.0,86,0.00,,,0.00,meteohub,2013-06-29 12:32:00,
2013-06-29 08:37:00,72.9,68.7,29.55,SE,143,0.0,2.0,87,0.00,,,0.00,meteohub,2013-06-29 12:37:00,
2013-06-29 08:42:00,73.0,68.5,29.55,NNW,331,0.0,2.0,86,0.00,,,0.00,meteohub,2013-06-29 12:42:00,
2013-06-29 08:47:00,73.0,68.2,29.56,NW,306,0.0,3.0,85,0.00,,,0.00,meteohub,2013-06-29 12:47:00,
2013-06-29 08:52:00,73.2,68.4,29.56,ENE,64,0.0,3.0,85,0.00,,,0.00,meteohub,2013-06-29 12:52:00,
2013-06-29 08:57:00,73.2,68.4,29.56,ENE,64,0.0,2.0,85,0.00,,,0.00,meteohub,2013-06-29 12:57:00,
2013-06-29 09:02:00,73.2,68.4,29.56,NNW,336,1.0,1.0,85,0.00,,,0.00,meteohub,2013-06-29 13:02:00,
2013-06-29 09:07:00,73.4,68.5,29.56,East,97,0.0,1.0,85,0.00,,,0.00,meteohub,2013-06-29 13:07:00,
2013-06-29 09:12:00,73.6,68.7,29.56,South,190,0.0,1.0,85,0.00,,,0.00,meteohub,2013-06-29 13:12:00,
2013-06-29 09:17:00,73.2,68.4,29.56,East,91,0.0,4.0,85,0.00,,,0.00,meteohub,2013-06-29 13:17:00,
2013-06-29 09:22:00,73.8,68.9,29.56,NE,40,2.0,4.0,85,0.00,,,0.00,meteohub,2013-06-29 13:22:00,
2013-06-29 09:27:00,73.4,68.2,29.56,ESE,103,0.0,5.0,84,0.00,,,0.00,meteohub,2013-06-29 13:27:00,
2013-06-29 09:32:00,73.2,68.4,29.55,ESE,117,0.0,5.0,85,0.00,,,0.00,meteohub,2013-06-29 13:32:00,
2013-06-29 09:37:00,73.2,68.7,29.55,ESE,107,0.0,5.0,86,0.00,,,0.00,meteohub,2013-06-29 13:37:00,
2013-06-29 09:42:00,73.2,69.1,29.55,SE,126,1.0,4.0,87,0.00,,,0.00,meteohub,2013-06-29 13:42:00,
2013-06-29 09:47:00,73.0,68.5,29.56,ENE,68,0.0,2.0,86,0.00,,,0.00,meteohub,2013-06-29 13:47:00,
2013-06-29 09:52:00,73.2,68.7,29.56,ENE,68,0.0,2.0,86,0.00,,,0.00,meteohub,2013-06-29 13:52:00,
2013-06-29 09:57:00,73.4,68.5,29.56,North,5,1.0,3.0,85,0.00,,,0.00,meteohub,2013-06-29 13:57:00,
2013-06-29 10:02:00,73.6,68.7,29.56,East,94,0.0,3.0,85,0.00,,,0.00,meteohub,2013-06-29 14:02:00,
2013-06-29 10:07:00,73.2,68.4,29.56,SW,215,0.0,3.0,85,0.00,,,0.00,meteohub,2013-06-29 14:07:00,
2013-06-29 10:12:00,73.2,68.4,29.57,ESE,108,0.0,3.0,85,0.00,,,0.00,meteohub,2013-06-29 14:12:00,
2013-06-29 10:17:00,73.0,68.2,29.57,SSE,155,0.0,3.0,85,0.00,,,0.00,meteohub,2013-06-29 14:17:00,
2013-06-29 10:22:00,72.9,68.7,29.56,East,84,0.0,3.0,87,0.00,,,0.00,meteohub,2013-06-29 14:22:00,
2013-06-29 10:27:00,72.3,68.5,29.55,East,79,3.0,3.0,88,0.00,,,0.00,meteohub,2013-06-29 14:27:00,
2013-06-29 10:32:00,72.1,68.7,29.56,East,81,0.0,5.0,89,0.00,,,0.00,meteohub,2013-06-29 14:32:00,
2013-06-29 10:37:00,72.0,68.5,29.56,NE,50,0.0,5.0,89,0.00,,,0.00,meteohub,2013-06-29 14:37:00,
2013-06-29 10:42:00,72.1,68.4,29.55,ESE,111,0.0,5.0,88,0.00,,,0.00,meteohub,2013-06-29 14:42:00,
2013-06-29 10:47:00,72.1,68.7,29.55,SE,129,0.0,2.0,89,0.00,,,0.00,meteohub,2013-06-29 14:47:00,
2013-06-29 10:52:00,72.5,69.4,29.55,SE,129,0.0,2.0,90,0.00,,,0.00,meteohub,2013-06-29 14:52:00,
2013-06-29 10:57:00,73.2,70.2,29.56,SSW,194,0.0,2.0,90,0.00,,,0.00,meteohub,2013-06-29 14:57:00,
2013-06-29 11:02:00,73.6,70.2,29.56,ENE,59,1.0,2.0,89,0.00,,,0.00,meteohub,2013-06-29 15:02:00,
2013-06-29 11:07:00,73.6,69.8,29.55,ESE,118,2.0,2.0,88,0.00,,,0.00,meteohub,2013-06-29 15:07:00,
2013-06-29 11:12:00,73.8,69.6,29.56,South,172,0.0,3.0,87,0.00,,,0.00,meteohub,2013-06-29 15:12:00,
2013-06-29 11:17:00,73.9,69.1,29.56,West,275,1.0,3.0,85,0.00,,,0.00,meteohub,2013-06-29 15:17:00,
2013-06-29 11:22:00,73.9,69.1,29.57,NW,321,0.0,5.0,85,0.00,,,0.00,meteohub,2013-06-29 15:22:00,
2013-06-29 11:27:00,74.1,69.3,29.57,SSW,200,0.0,5.0,85,0.00,,,0.00,meteohub,2013-06-29 15:27:00,
2013-06-29 11:32:00,74.8,69.6,29.57,East,80,0.0,5.0,84,0.00,,,0.00,meteohub,2013-06-29 15:32:00,
2013-06-29 11:36:00,75.0,69.4,29.57,NNW,331,0.0,5.0,83,0.00,,,0.00,meteohub,2013-06-29 15:36:00,
2013-06-29 11:42:00,76.3,70.3,29.57,WSW,258,0.0,4.0,82,0.00,,,0.00,meteohub,2013-06-29 15:42:00,
2013-06-29 11:47:00,77.2,70.5,29.57,SSW,198,1.0,4.0,80,0.00,,,0.00,meteohub,2013-06-29 15:47:00,
2013-06-29 11:52:00,77.5,69.8,29.57,West,267,1.0,4.0,77,0.00,,,0.00,meteohub,2013-06-29 15:52:00,
2013-06-29 11:57:00,77.0,69.6,29.57,West,277,1.0,4.0,78,0.00,,,0.00,meteohub,2013-06-29 15:57:00,
2013-06-29 12:02:00,77.2,70.2,29.57,NW,307,3.0,3.0,79,0.00,,,0.00,meteohub,2013-06-29 16:02:00,
2013-06-29 12:07:00,79.0,70.3,29.57,NNE,33,2.0,4.0,75,0.00,,,0.00,meteohub,2013-06-29 16:07:00,
2013-06-29 12:12:00,79.2,69.8,29.57,East,83,0.0,4.0,73,0.00,,,0.00,meteohub,2013-06-29 16:12:00,
2013-06-29 12:17:00,79.3,69.1,29.57,NW,321,1.0,4.0,71,0.00,,,0.00,meteohub,2013-06-29 16:17:00,
2013-06-29 12:22:00,79.7,69.4,29.56,SSE,157,1.0,4.0,71,0.00,,,0.00,meteohub,2013-06-29 16:22:00,
2013-06-29 12:27:00,79.7,68.5,29.57,NW,320,2.0,5.0,69,0.00,,,0.00,meteohub,2013-06-29 16:27:00,
2013-06-29 12:32:00,79.9,69.6,29.57,NW,313,0.0,5.0,71,0.00,,,0.00,meteohub,2013-06-29 16:32:00,
2013-06-29 12:37:00,79.3,68.7,29.57,West,281,2.0,5.0,70,0.00,,,0.00,meteohub,2013-06-29 16:37:00,
2013-06-29 12:42:00,80.1,68.9,29.57,WSW,252,1.0,5.0,69,0.00,,,0.00,meteohub,2013-06-29 16:42:00,
2013-06-29 12:47:00,80.2,68.4,29.57,WNW,296,1.0,4.0,67,0.00,,,0.00,meteohub,2013-06-29 16:47:00,
2013-06-29 12:52:00,80.4,68.9,29.57,NW,309,0.0,4.0,68,0.00,,,0.00,meteohub,2013-06-29 16:52:00,
2013-06-29 12:57:00,80.4,69.3,29.57,WNW,284,1.0,4.0,69,0.00,,,0.00,meteohub,2013-06-29 16:57:00,
2013-06-29 13:02:00,80.1,68.5,29.57,West,265,0.0,4.0,68,0.00,,,0.00,meteohub,2013-06-29 17:02:00,
2013-06-29 13:07:00,79.7,67.8,29.58,North,0,0.0,4.0,67,0.00,,,0.00,meteohub,2013-06-29 17:07:00,
2013-06-29 13:12:00,79.5,68.0,29.58,West,263,2.0,4.0,68,0.00,,,0.00,meteohub,2013-06-29 17:12:00,
2013-06-29 13:17:00,80.8,69.3,29.57,WNW,286,1.0,4.0,68,0.00,,,0.00,meteohub,2013-06-29 17:17:00,
2013-06-29 13:22:00,81.1,68.7,29.57,WSW,254,0.0,4.0,66,0.00,,,0.00,meteohub,2013-06-29 17:22:00,
2013-06-29 13:27:00,81.9,69.4,29.57,West,274,1.0,4.0,66,0.00,,,0.00,meteohub,2013-06-29 17:27:00,
2013-06-29 13:32:00,80.8,68.4,29.57,SSW,210,1.0,4.0,66,0.00,,,0.00,meteohub,2013-06-29 17:32:00,
2013-06-29 13:37:00,81.0,69.4,29.57,WSW,248,0.0,4.0,68,0.00,,,0.00,meteohub,2013-06-29 17:37:00,
2013-06-29 13:42:00,81.0,68.9,29.57,SE,142,3.0,7.0,67,0.00,,,0.00,meteohub,2013-06-29 17:42:00,
2013-06-29 13:47:00,81.3,68.4,29.57,WNW,300,1.0,8.0,65,0.00,,,0.00,meteohub,2013-06-29 17:47:00,
2013-06-29 13:52:00,82.0,69.6,29.57,NNE,15,0.0,8.0,66,0.00,,,0.00,meteohub,2013-06-29 17:52:00,
2013-06-29 13:57:00,82.6,69.6,29.57,NW,304,1.0,5.0,65,0.00,,,0.00,meteohub,2013-06-29 17:57:00,
2013-06-29 14:02:00,81.5,68.2,29.58,NNW,341,2.0,6.0,64,0.00,,,0.00,meteohub,2013-06-29 18:02:00,
2013-06-29 14:07:00,82.2,71.1,29.57,NNW,329,0.0,6.0,69,0.00,,,0.00,meteohub,2013-06-29 18:07:00,
2013-06-29 14:12:00,82.9,69.4,29.57,West,261,1.0,6.0,64,0.00,,,0.00,meteohub,2013-06-29 18:12:00,
2013-06-29 14:17:00,81.7,68.7,29.57,West,267,0.0,5.0,65,0.00,,,0.00,meteohub,2013-06-29 18:17:00,
2013-06-29 14:22:00,82.2,70.2,29.57,NW,309,1.0,4.0,67,0.00,,,0.00,meteohub,2013-06-29 18:22:00,
2013-06-29 14:27:00,82.0,70.0,29.57,East,84,0.0,3.0,67,0.00,,,0.00,meteohub,2013-06-29 18:27:00,
2013-06-29 14:32:00,81.3,69.8,29.57,NNW,341,0.0,3.0,68,0.00,,,0.00,meteohub,2013-06-29 18:32:00,
2013-06-29 14:37:00,81.1,69.6,29.57,ENE,64,0.0,3.0,68,0.00,,,0.00,meteohub,2013-06-29 18:37:00,
2013-06-29 14:42:00,81.9,69.8,29.57,WSW,258,0.0,5.0,67,0.00,,,0.00,meteohub,2013-06-29 18:42:00,
2013-06-29 14:47:00,82.0,69.6,29.57,West,273,0.0,7.0,66,0.00,,,0.00,meteohub,2013-06-29 18:47:00,
2013-06-29 14:52:00,82.2,69.3,29.57,NNE,32,0.0,7.0,65,0.00,,,0.00,meteohub,2013-06-29 18:52:00,
2013-06-29 14:57:00,82.8,68.4,29.57,West,266,2.0,7.0,62,0.00,,,0.00,meteohub,2013-06-29 18:57:00,
2013-06-29 15:02:00,83.7,69.3,29.57,West,272,1.0,4.0,62,0.00,,,0.00,meteohub,2013-06-29 19:02:00,
2013-06-29 15:07:00,84.0,70.0,29.57,ENE,63,1.0,4.0,63,0.00,,,0.00,meteohub,2013-06-29 19:07:00,
2013-06-29 15:12:00,83.1,68.4,29.57,SW,232,2.0,6.0,61,0.00,,,0.00,meteohub,2013-06-29 19:12:00,
2013-06-29 15:17:00,82.8,68.4,29.57,SSW,213,1.0,6.0,62,0.00,,,0.00,meteohub,2013-06-29 19:17:00,
2013-06-29 15:22:00,82.0,68.7,29.57,West,264,4.0,6.0,64,0.00,,,0.00,meteohub,2013-06-29 19:22:00,
2013-06-29 15:27:00,82.6,68.7,29.57,West,260,0.0,5.0,63,0.00,,,0.00,meteohub,2013-06-29 19:27:00,
2013-06-29 15:32:00,82.9,69.1,29.57,ESE,105,3.0,5.0,63,0.00,,,0.00,meteohub,2013-06-29 19:32:00,
2013-06-29 15:37:00,83.3,68.9,29.57,WNW,296,4.0,5.0,62,0.00,,,0.00,meteohub,2013-06-29 19:37:00,
2013-06-29 15:42:00,83.5,68.2,29.57,WNW,286,4.0,6.0,60,0.00,,,0.00,meteohub,2013-06-29 19:42:00,
2013-06-29 15:47:00,83.5,68.5,29.57,WNW,303,2.0,6.0,61,0.00,,,0.00,meteohub,2013-06-29 19:47:00,
2013-06-29 15:52:00,83.5,68.5,29.57,NE,47,1.0,6.0,61,0.00,,,0.00,meteohub,2013-06-29 19:52:00,
2013-06-29 15:57:00,83.1,68.4,29.58,NNW,333,0.0,6.0,61,0.00,,,0.00,meteohub,2013-06-29 19:57:00,
2013-06-29 16:02:00,83.1,67.8,29.58,ENE,69,2.0,5.0,60,0.00,,,0.00,meteohub,2013-06-29 20:02:00,
2013-06-29 16:07:00,82.8,66.9,29.58,East,96,1.0,5.0,59,0.00,,,0.00,meteohub,2013-06-29 20:07:00,
2013-06-29 16:12:00,82.9,68.2,29.58,WNW,300,1.0,5.0,61,0.00,,,0.00,meteohub,2013-06-29 20:12:00,
2013-06-29 16:17:00,81.7,68.4,29.58,SW,221,0.0,5.0,64,0.00,,,0.00,meteohub,2013-06-29 20:17:00,
2013-06-29 16:22:00,81.3,68.0,29.58,ESE,117,1.0,5.0,64,0.00,,,0.00,meteohub,2013-06-29 20:22:00,
2013-06-29 16:27:00,81.3,67.1,29.58,SE,135,0.0,5.0,62,0.00,,,0.00,meteohub,2013-06-29 20:27:00,
2013-06-29 16:32:00,81.7,68.7,29.58,West,277,1.0,5.0,65,0.00,,,0.00,meteohub,2013-06-29 20:32:00,
2013-06-29 16:37:00,82.0,68.2,29.59,NW,307,2.0,5.0,63,0.00,,,0.00,meteohub,2013-06-29 20:37:00,
2013-06-29 16:42:00,81.7,68.4,29.59,SE,126,0.0,5.0,64,0.00,,,0.00,meteohub,2013-06-29 20:42:00,
2013-06-29 16:47:00,81.0,68.0,29.59,ENE,76,2.0,5.0,65,0.00,,,0.00,meteohub,2013-06-29 20:47:00,
2013-06-29 16:52:00,80.4,68.0,29.59,ESE,119,3.0,7.0,66,0.00,,,0.00,meteohub,2013-06-29 20:52:00,
2013-06-29 16:57:00,79.7,67.8,29.59,SSE,155,0.0,7.0,67,0.00,,,0.00,meteohub,2013-06-29 20:57:00,
2013-06-29 17:02:00,79.5,68.5,29.59,East,90,0.0,7.0,69,0.00,,,0.00,meteohub,2013-06-29 21:02:00,
2013-06-29 17:03:00,79.5,68.0,29.60,East,81,1.0,7.0,68,0.00,,,0.00,meteohub,2013-06-29 21:03:00,
2013-06-29 17:08:00,79.7,68.2,29.60,West,260,1.0,9.0,68,0.00,,,0.00,meteohub,2013-06-29 21:08:00,
2013-06-29 17:13:00,79.3,67.8,29.59,WNW,292,1.0,9.0,68,0.00,,,0.00,meteohub,2013-06-29 21:13:00,
2013-06-29 17:18:00,79.2,67.6,29.60,West,279,0.0,6.0,68,0.00,,,0.00,meteohub,2013-06-29 21:18:00,
2013-06-29 17:23:00,79.2,68.5,29.60,West,267,4.0,6.0,70,0.00,,,0.00,meteohub,2013-06-29 21:23:00,
2013-06-29 17:28:00,79.2,68.5,29.60,NW,314,1.0,6.0,70,0.00,,,0.00,meteohub,2013-06-29 21:28:00,
2013-06-29 17:33:00,79.0,68.4,29.60,East,88,7.0,7.0,70,0.00,,,0.00,meteohub,2013-06-29 21:33:00,
2013-06-29 17:38:00,78.4,67.5,29.60,SSE,159,2.0,5.0,69,0.00,,,0.00,meteohub,2013-06-29 21:38:00,
2013-06-29 17:43:00,78.1,67.1,29.60,North,350,0.0,8.0,69,0.00,,,0.00,meteohub,2013-06-29 21:43:00,
2013-06-29 17:48:00,77.9,66.9,29.60,WNW,284,0.0,8.0,69,0.00,,,0.00,meteohub,2013-06-29 21:48:00,
2013-06-29 17:53:00,77.7,66.7,29.60,West,264,3.0,5.0,69,0.00,,,0.00,meteohub,2013-06-29 21:53:00,
2013-06-29 17:58:00,77.7,67.1,29.60,West,262,0.0,6.0,70,0.00,,,0.00,meteohub,2013-06-29 21:58:00,
2013-06-29 18:03:00,77.7,66.7,29.60,NW,317,0.0,6.0,69,0.00,,,0.00,meteohub,2013-06-29 22:03:00,
2013-06-29 18:08:00,77.5,66.6,29.60,WNW,296,0.0,6.0,69,0.00,,,0.00,meteohub,2013-06-29 22:08:00,
2013-06-29 18:13:00,77.4,66.7,29.60,NW,316,0.0,3.0,70,0.00,,,0.00,meteohub,2013-06-29 22:13:00,
2013-06-29 18:18:00,77.4,66.7,29.60,NE,34,0.0,3.0,70,0.00,,,0.00,meteohub,2013-06-29 22:18:00,
2013-06-29 18:23:00,77.4,66.7,29.60,NE,46,1.0,4.0,70,0.00,,,0.00,meteohub,2013-06-29 22:23:00,
2013-06-29 18:28:00,77.4,66.7,29.60,East,94,1.0,5.0,70,0.00,,,0.00,meteohub,2013-06-29 22:28:00,
2013-06-29 18:33:00,77.0,66.9,29.60,NW,310,1.0,5.0,71,0.00,,,0.00,meteohub,2013-06-29 22:33:00,
2013-06-29 18:38:00,76.8,66.7,29.61,NE,44,1.0,5.0,71,0.00,,,0.00,meteohub,2013-06-29 22:38:00,
2013-06-29 18:43:00,76.6,66.6,29.61,NE,36,0.0,5.0,71,0.00,,,0.00,meteohub,2013-06-29 22:43:00,
2013-06-29 18:48:00,76.5,66.7,29.61,SE,142,2.0,5.0,72,0.00,,,0.00,meteohub,2013-06-29 22:48:00,
2013-06-29 18:53:00,76.5,66.7,29.62,SSW,211,0.0,2.0,72,0.00,,,0.00,meteohub,2013-06-29 22:53:00,
2013-06-29 18:58:00,76.3,66.9,29.62,NNW,337,0.0,2.0,73,0.00,,,0.00,meteohub,2013-06-29 22:58:00,
2013-06-29 19:03:00,76.1,66.7,29.62,SW,236,1.0,2.0,73,0.00,,,0.00,meteohub,2013-06-29 23:03:00,
2013-06-29 19:08:00,75.9,67.1,29.62,NNE,17,0.0,3.0,74,0.00,,,0.00,meteohub,2013-06-29 23:08:00,
2013-06-29 19:13:00,75.7,66.9,29.62,NNE,14,0.0,3.0,74,0.00,,,0.00,meteohub,2013-06-29 23:13:00,
2013-06-29 19:18:00,75.6,67.1,29.62,SSW,208,0.0,3.0,75,0.00,,,0.00,meteohub,2013-06-29 23:18:00,
2013-06-29 19:23:00,75.4,66.9,29.62,SW,231,0.0,2.0,75,0.00,,,0.00,meteohub,2013-06-29 23:23:00,
2013-06-29 19:28:00,75.2,67.1,29.62,ENE,66,0.0,3.0,76,0.00,,,0.00,meteohub,2013-06-29 23:28:00,
2013-06-29 19:33:00,75.0,66.9,29.62,NE,53,0.0,3.0,76,0.00,,,0.00,meteohub,2013-06-29 23:33:00,
2013-06-29 19:38:00,74.8,66.7,29.63,NE,55,0.0,3.0,76,0.00,,,0.00,meteohub,2013-06-29 23:38:00,
2013-06-29 19:43:00,74.7,66.6,29.63,SE,140,0.0,3.0,76,0.00,,,0.00,meteohub,2013-06-29 23:43:00,
2013-06-29 19:48:00,74.7,66.9,29.63,SW,236,0.0,3.0,77,0.00,,,0.00,meteohub,2013-06-29 23:48:00,
2013-06-29 19:53:00,74.3,66.6,29.63,WSW,257,0.0,3.0,77,0.00,,,0.00,meteohub,2013-06-29 23:53:00,
2013-06-29 19:58:00,74.1,66.7,29.63,South,169,0.0,3.0,78,0.00,,,0.00,meteohub,2013-06-29 23:58:00,
2013-06-29 20:03:00,73.9,66.6,29.63,South,169,0.0,3.0,78,0.00,,,0.00,meteohub,2013-06-30 00:03:00,
2013-06-29 20:08:00,73.8,66.9,29.63,East,87,0.0,3.0,79,0.00,,,0.00,meteohub,2013-06-30 00:08:00,
2013-06-29 20:13:00,73.6,67.1,29.63,East,87,0.0,2.0,80,0.00,,,0.00,meteohub,2013-06-30 00:13:00,
2013-06-29 20:18:00,73.2,66.7,29.63,SE,146,0.0,2.0,80,0.00,,,0.00,meteohub,2013-06-30 00:18:00,
2013-06-29 20:23:00,73.0,66.9,29.64,NNW,348,0.0,3.0,81,0.00,,,0.00,meteohub,2013-06-30 00:23:00,
2013-06-29 20:28:00,73.0,66.9,29.64,SSE,148,0.0,3.0,81,0.00,,,0.00,meteohub,2013-06-30 00:28:00,
2013-06-29 20:33:00,72.9,66.7,29.64,ESE,107,0.0,3.0,81,0.00,,,0.00,meteohub,2013-06-30 00:33:00,
2013-06-29 20:38:00,72.7,66.9,29.65,East,90,1.0,2.0,82,0.00,,,0.00,meteohub,2013-06-30 00:38:00,
2013-06-29 20:43:00,72.3,66.6,29.65,East,84,0.0,3.0,82,0.00,,,0.00,meteohub,2013-06-30 00:43:00,
2013-06-29 20:48:00,72.3,66.9,29.65,NNE,19,0.0,3.0,83,0.00,,,0.00,meteohub,2013-06-30 00:48:00,
2013-06-29 20:53:00,72.1,66.7,29.65,SSE,150,0.0,3.0,83,0.00,,,0.00,meteohub,2013-06-30 00:53:00,
2013-06-29 20:58:00,72.1,66.7,29.65,NE,56,0.0,2.0,83,0.00,,,0.00,meteohub,2013-06-30 00:58:00,
2013-06-29 21:03:00,72.0,66.6,29.66,SSE,157,0.0,2.0,83,0.00,,,0.00,meteohub,2013-06-30 01:03:00,
2013-06-29 21:08:00,72.0,66.9,29.66,WNW,294,0.0,2.0,84,0.00,,,0.00,meteohub,2013-06-30 01:08:00,
2013-06-29 21:13:00,71.8,66.7,29.66,SE,135,0.0,2.0,84,0.00,,,0.00,meteohub,2013-06-30 01:13:00,
2013-06-29 21:18:00,71.8,67.1,29.66,SE,135,0.0,3.0,85,0.00,,,0.00,meteohub,2013-06-30 01:18:00,
2013-06-29 21:23:00,71.4,66.7,29.66,South,182,0.0,3.0,85,0.00,,,0.00,meteohub,2013-06-30 01:23:00,
2013-06-29 21:28:00,71.4,66.7,29.66,ESE,104,0.0,3.0,85,0.00,,,0.00,meteohub,2013-06-30 01:28:00,
2013-06-29 21:33:00,71.2,66.9,29.66,ESE,104,0.0,2.0,86,0.00,,,0.00,meteohub,2013-06-30 01:33:00,
2013-06-29 21:38:00,71.1,66.7,29.67,ESE,104,0.0,2.0,86,0.00,,,0.00,meteohub,2013-06-30 01:38:00,
2013-06-29 21:43:00,71.1,66.9,29.67,NNE,26,0.0,2.0,87,0.00,,,0.00,meteohub,2013-06-30 01:43:00,
2013-06-29 21:48:00,70.9,66.7,29.67,NNE,26,0.0,1.0,87,0.00,,,0.00,meteohub,2013-06-30 01:48:00,
2013-06-29 21:53:00,70.7,66.6,29.67,NNE,26,0.0,1.0,87,0.00,,,0.00,meteohub,2013-06-30 01:53:00,
2013-06-29 21:58:00,70.5,66.7,29.68,South,178,0.0,1.0,88,0.00,,,0.00,meteohub,2013-06-30 01:58:00,
2013-06-29 22:03:00,70.3,66.6,29.68,South,178,0.0,2.0,88,0.00,,,0.00,meteohub,2013-06-30 02:03:00,
2013-06-29 22:08:00,70.3,66.6,29.68,ENE,74,0.0,2.0,88,0.00,,,0.00,meteohub,2013-06-30 02:08:00,
2013-06-29 22:13:00,70.3,66.6,29.68,WNW,284,0.0,2.0,88,0.00,,,0.00,meteohub,2013-06-30 02:13:00,
2013-06-29 22:18:00,70.2,66.7,29.68,WNW,284,0.0,2.0,89,0.00,,,0.00,meteohub,2013-06-30 02:18:00,
2013-06-29 22:23:00,70.2,66.7,29.68,WNW,284,0.0,2.0,89,0.00,,,0.00,meteohub,2013-06-30 02:23:00,
2013-06-29 22:28:00,70.0,66.6,29.68,WNW,284,0.0,1.0,89,0.00,,,0.00,meteohub,2013-06-30 02:28:00,
2013-06-29 22:33:00,70.0,66.9,29.68,WNW,284,0.0,1.0,90,0.00,,,0.00,meteohub,2013-06-30 02:33:00,
2013-06-29 22:34:00,70.0,66.9,29.68,WNW,284,0.0,1.0,90,0.00,,,0.00,meteohub,2013-06-30 02:34:00,
2013-06-29 22:39:00,69.8,66.7,29.68,NNW,329,0.0,1.0,90,0.00,,,0.00,meteohub,2013-06-30 02:39:00,
2013-06-29 22:44:00,69.6,66.6,29.68,NNW,329,0.0,1.0,90,0.00,,,0.00,meteohub,2013-06-30 02:44:00,
2013-06-29 22:49:00,69.6,66.6,29.68,NNW,329,0.0,1.0,90,0.00,,,0.00,meteohub,2013-06-30 02:49:00,
2013-06-29 22:54:00,69.6,66.6,29.69,NNW,329,0.0,1.0,90,0.00,,,0.00,meteohub,2013-06-30 02:54:00,
2013-06-29 22:59:00,69.6,66.6,29.69,NNW,329,0.0,0.0,90,0.00,,,0.00,meteohub,2013-06-30 02:59:00,
2013-06-29 23:04:00,69.4,66.7,29.69,NNW,329,0.0,0.0,91,0.00,,,0.00,meteohub,2013-06-30 03:04:00,
2013-06-29 23:09:00,69.4,66.7,29.69,North,350,0.0,0.0,91,0.00,,,0.00,meteohub,2013-06-30 03:09:00,
2013-06-29 23:14:00,69.4,66.7,29.69,North,350,0.0,1.0,91,0.00,,,0.00,meteohub,2013-06-30 03:14:00,
2013-06-29 23:19:00,69.3,66.6,29.69,North,350,0.0,1.0,91,0.00,,,0.00,meteohub,2013-06-30 03:19:00,
2013-06-29 23:24:00,69.3,66.6,29.70,North,350,0.0,1.0,91,0.00,,,0.00,meteohub,2013-06-30 03:24:00,
2013-06-29 23:29:00,69.3,66.6,29.69,North,350,0.0,0.0,91,0.00,,,0.00,meteohub,2013-06-30 03:29:00,
2013-06-29 23:34:00,69.3,66.6,29.70,North,350,0.0,0.0,91,0.00,,,0.00,meteohub,2013-06-30 03:34:00,
2013-06-29 23:39:00,69.3,66.6,29.70,North,350,0.0,0.0,91,0.00,,,0.00,meteohub,2013-06-30 03:39:00,
2013-06-29 23:44:00,69.3,66.6,29.70,West,268,0.0,0.0,91,0.00,,,0.00,meteohub,2013-06-30 03:44:00,
2013-06-29 23:49:00,69.3,66.6,29.70,West,268,0.0,2.0,91,0.00,,,0.00,meteohub,2013-06-30 03:49:00,
2013-06-29 23:54:00,69.4,66.7,29.70,West,268,0.0,2.0,91,0.00,,,0.00,meteohub,2013-06-30 03:54:00,
2013-06-29 23:59:00,69.4,66.7,29.70,West,268,0.0,0.0,91,0.00,,,0.00,meteohub,2013-06-30 03:59:00,